STARLINK-1020 (44725 NORAD) Tracking and Keplerian Element Data

This shows tracking and keplerian element data for the satellite.

Feedback or suggestion? Click here.




ElementValue
Catalog44725
NameSTARLINK-1020
Epoch Orbit1141
Epoch Day23.25001157
Epoch Year2020
RAAN172.2849
Inclination53.0057
Eccentricity6.32E-05
Argument of Perigee46.4097
Mean Anonmoly166.7558
Mean Motion15.3196849
Decay Rate-0.00019257
L11 44725U 19074N 20023.25001157 -.00019257 00000-0 -60518-3 0 9990
L22 44725 53.0057 172.2849 0000632 46.4097 166.7558 15.31968490 11419

Live tracking and technical data element details for STARLINK-1020 (NORAD 44725). STARLINK-1020 can be tracked NOW for your location showing map with azimuth and elevation plus other details from your city location.

Track the satellite on the map from your city or location and see movement details for azimuth, elevation, latitude, longitude, range, height, and movement on the map or in text.







IsCatalogInMostPopularTable: catalog: 44725, numindb: 10
Update: records affected: 1



GetName: 44725 STARLINK-1020

Hit Count: updated at: Fri, 24 Jan 2020 13:27:25 GMT